Zurück zum Katalog

COSMOS 2251 DEB

AktivLEO
NORAD 34003·DEBRIS·🇷🇺 Russia

Gestartet Jun 16, 1993 von Plesetsk Cosmodrome

Loading…

Nächste Überflüge (nächste 24 Stunden)

TLE

AktuellSource: Space-Track

Epoche: Sep 14, 2026, 04:39 UTC

1 34003U 93036GN  26257.19429911  .00001172  00000-0  78356-3 0  9992
2 34003  74.0773 181.0028 0276666 229.0819 128.6056 13.85128740882380

Verfolge COSMOS 2251 DEB in Echtzeit mit AllMySat

Download on the App Store